Погода в Туле

Погода в Туле : погода сейчас, прогноз погоды и архив. Всё, что Вы хотите узнать о погоде в Туле!

Хотите узнать прогноз погоды в Туле? Тогда Вам сюда: Погода в Туле

Поиск расширенной информации на нашем сайте:

Другие новости

Новости СМИ2

Главная страница сайта

Новости сайта

03.07.2017

Напоминаем, что на нашем специализированном сайте Метеоцентр.Азия вы можете получить высокодетализированные автоматические прогнозы погоды по пунктам России, СНГ и мира в авиационном формате (включающие направление и скорость ветра, видимость, явления погоды, количество и форму облачности, нижнюю и верхнюю границу облачности).


Погода в Туле - сегодня

Время (UTC), дата Ветер
(°,м/с) 
Видим.   Явления Облачность Т
(°С)
Тd
(°С)
f(%) Тe
(°С)
Pmin
(гПа)
dP
(гПа)
Po
(мм)
O2
(г/м3)
Тmin Tmax R s Состояние
почвы
09 18.07.17 220 (ЮЗ) 10 км    4/3 600 м верхняя 
[Cu med, cong|Ci fib]
+23.2 +11 46 +26  1016.7  -0.7  745  275           
12 18.07.17 230 (ЮЗ) 3{10}  10 км    8/3 600 м кучево-дожд., средняя, верхняя 
[Cb calv|Ac trans|Ci fib]
+23.3 +10.9 46 +26  1015.9  -0.7  744  274           
15 18.07.17 260 (З) 10 км    8/4 600 м кучево-дожд., верхняя 
[Cb calv|Ci fib]
+23.3 +12.1 49 +28  1014.9  -0.7  744  274           
18 18.07.17 290 (З) 10 км    3/3 600 м кучево-дожд. 
[Cb calv]
+19.1 +12.1 64 +25  1016  0.8  744  278    +25       
21 18.07.17 230 (ЮЗ) 10 км    ясно 
+15.1 +11.4 79 +19  1017.6  0.9  745  282           
00 19.07.17 270 (З) 10 км    ясно 
+12.3 +10 86 +14  1018.1  0.2  745  285           
03 19.07.17 240 (ЮЗ) 10 км    ясно 
+12 +9.8 86 +14  1018.2  0.3  745  286  +11.2         
06 19.07.17 250 (З) 10 км    ясно 
+18.5 +10.5 60 +21  1018.3  0.7  746  280  +11.2        сухая 
09 19.07.17 250 (З) 10 км    4/4 1000 м 
[Cu hum]
+21.4 +8.3 43 +21  1017.7  -0.4  746  277           
12 19.07.17 280 (З) 10 км    8/8 600 м 
[Cu med, cong]
+21.2 +9.2 46 +21  1017.2  -0.5  745  277           
15 19.07.17 300 (СЗ) 10 км    8/8 600 м кучево-дожд. 
[Cb calv]
+19.8 +10.4 55 +23  1016.8  -0.5  745  278           
18 19.07.17 240 (ЮЗ) 10 км    8/0 средняя 
[Ac trans]
+17.6 +12.4 72 +24  1017.5  0.3  745  280    +23.1       
21 19.07.17 220 (ЮЗ) 10 км    8/0 средняя 
[Ac trans]
+15.3 +11.8 80 +21  1017.2  -0.2  745  282           
00 20.07.17 200 (Ю) 10 км    ясно 
+12.3 +10.9 91 +17  1017.5  -0.2  745  285           
03 20.07.17 220 (ЮЗ) 10 км    ясно 
+12.4 +10.9 91 +17  1017.2  745  285  +10.8         
06 20.07.17 230 (ЮЗ) 10 км    3/0 средняя 
[Ac trans]
+19 +12 64 +24  1016.9  -0.1  745  278  +10.8        сухая 
09 20.07.17 220 (ЮЗ) 10 км    6/6 1000 м 
[Cu med, cong]
+21.1 +9.2 46 +21  1015.8  -0.9  744  277           
12 20.07.17 230 (ЮЗ) 10 км    4/4 1000 м 
[Cu med, cong]
+22.2 +8.8 42 +22  1014.8  -0.8  743  276           
15 20.07.17 220 (ЮЗ) 10 км  в посл. час ливневой дождь  10/9 600 м кучево-дожд., средняя 
[Cb calv|Ac trans]
+16.8 +11.6 71 +21  1015.1  -0.2  743  280      0.0     
18 20.07.17 220 (ЮЗ) 10 км  {ливн. осадки}  9/0 средняя, верхняя 
[Ac trans|Ci]
+16.5 +11.8 74 +21  1014.5  -0.6  743  280    +23.3  0.1     
21 20.07.17 тихо ()   10 км    6/0 средняя, верхняя 
[Ac trans|Ci]
+13.1 +11.8 92 +17  1014.4  -0.4  743  283           
00 21.07.17 020 (С) 10 км  зарница  9/6 600 м кучево-дожд., средняя 
[Cb calv|Ac trans]
+12.9 +11.4 91 +17  1013.9  -0.5  742  283           
03 21.07.17 100 (В) 10 км  в посл. час ливневой дождь  9/8 600 м кучево-дожд., средняя 
[Cb calv|Ac inh]
+13.9 +12.9 94 +20  1013.9  0.1  742  282  +12.6       
06 21.07.17 220 (ЮЗ) 10 км  {гроза, ливн. осадки}  3/0 средняя 
[Ac trans]
+18.8 +13.4 71 +26  1014  0.5  743  277  +12.6      влажная 
09 21.07.17 190 (Ю) 10 км    4/3 600 м верхняя 
[Cu med, cong|Ci fib]
+22.8 +12.4 52 +28  1013.3  -0.4  742  274           
Время (UTC), дата Ветер
(°,м/с) 
Видим.   Явления Облачность Т
(°С)
Тd
(°С)
f(%) Тe
(°С)
Pmin
(гПа)
dP
(гПа)
Po
(мм)
O2
(г/м3)
Тmin Tmax R s Состояние
почвы

Для получения пояснительной информации подведите курсор к названию столбца.

ПОГОДА в Туле - архив

Всё, что Вы хотите узнать о погоде в Туле - удобно и подробно!

Выберите нужную дату (начиная с 1 января 2015* года) и нажмите кнопку "Найти".
Будут отображены архивные сводки погоды по пункту Тула, начиная с указанной даты.


Отображать данные в формате CSV (для использования в таблицах Excel)


Внимание! Наш архив погоды предназначен исключительно для личного некоммерческого использования в познавательных целях. Если Вам необходимы официальные справки о состоянии погоды (для производственных, юридических, коммерческих и т.п. целей), обращайтесь в органы Росгидромета.

*Примечание: данная дата относится к архиву по метеостанциям СССР (Россия, СНГ, Балтия).
Архив по метеостанциям Зарубежной Европы и Азии (кроме Китая) хранится 10 дней, по другим регионам земного шара (Китай, Африка, Америка, Австралия, Океания) - 1 день.

Тула - район местоположения метеостанции


Название, широта, долгота, высота метеостанции:
Тула 54.2°ш. 37.6°д. 203 м над ур. моря [Российская Федерация]

Дополнительная информация

В oтличие oт бoльшинства пoгoдных сайтoв мы публикуем пoдрoбную метеoинфoрмацию в детальнoм прoфессиoнальнoм фoрмате.

Характеристики температуры и влажнoсти вoздуха измеряются на высoте 2 м в тени вдали oт зданий и деревьев.
Скoрoсть ветра измеряется на высoте 10 м (на урoвне рoста челoвека скoрoсть ветра ниже в 1.5-2 раза). Если метеoстанция нахoдится в гoрoде или в лесу, тo скoрoсть ветра занижена на 2-4 м/с пo сравнению с oткрытым местoм. Скoрoсть ветра над акватoриями крупных рек и oзёр, а также на вершинах хoлмoв на 2-5 м/с выше, чем в oбычных услoвиях.
Атмoсфернoе давление в разных тoчках местнoсти мoжет значительнo oтличаться oт давления на метеoстанции, в зависимoсти oт услoвий рельефа (при пoдъёме на 10 м давление пoнижается примернo на 1 мм рт.ст.).